Regional Weather Roundup
Issued by NWS Newport/Morehead, NC

Current Version | Previous Version | Text Only | Print | Product List | Glossary On
Versions: 1 2 3 4 5 6 7 8 9 10 11 12 13 14 15 16 17 18 19 20 21 22 23 24 25 26 27 28 29 30 31 32 33 34 35 36 37 38 39 40 41 42 43 44 45 46 47 48 49 50
000
ASUS42 KMHX 152225
RWRMHX
WEATHER ROUNDUP FOR EASTERN NORTH CAROLINA
NATIONAL WEATHER SERVICE NEWPORT/MOREHEAD CITY NC
500 PM EST SUN JAN 15 2017

NOTE: "FAIR" INDICATES FEW OR NO CLOUDS BELOW 12,000 FEET
WITH NO SIGNIFICANT WEATHER AND/OR OBSTRUCTIONS TO VISIBILITY

NCZ015>017-031-032-045>047-102-103-152300-
NORTH COAST

CITY           SKY/WX    TMP DP  RH WIND       PRES   REMARKS
EDENTON        CLEAR     47  41  79 CALM      30.37R
ELIZABETH CITY CLEAR     45  38  76 NE8       30.37R
KITTY HAWK     NOT AVBL
MANTEO         CLOUDY    42  39  90 NE9       30.37R

$$

NCZ045>047-081-094-103-104-152300-
CENTRAL COAST

CITY           SKY/WX    TMP DP  RH WIND       PRES   REMARKS
FRISCO         PTCLDY    46  41  82 VRB7      30.35R

$$

NCZ095-097-098-100-101-152300-
SOUTHERN COAST

CITY           SKY/WX    TMP DP  RH WIND       PRES   REMARKS
BEAUFORT       CLOUDY    50  42  74 NE7       30.33S
CEDAR ISLAND   NOT AVBL
JACKSONVILLE   CLOUDY    57  47  69 E9        30.31R
PINEY ISLAND   CLOUDY   N/A N/A N/A NE13      30.34R
WILMINGTON     CLEAR     54  47  77 E12       30.31R


$$

NCZ011>013-027>030-043-044-078>080-089-090>093-098-152300-
COASTAL PLAIN

CITY           SKY/WX    TMP DP  RH WIND       PRES   REMARKS
AHOSKIE          N/A     49  33  54 CALM      30.36R
CLINTON        PTCLDY    59  48  66 NE5       30.31R
ELIZABETHTOWN  PTCLDY    60  49  65 CALM      30.30R
GOLDSBORO      PTCLDY    55  46  72 E8        30.29S
GREENVILLE     CLEAR     52  41  66 E6        30.34R
HAVELOCK       CLOUDY    49  42  77 E12       30.34R
KENANSVILLE    CLOUDY    57  46  67 E3        30.31R
KINSTON        MOCLDY    55  45  67 E6        30.33R
NEW BERN       CLOUDY    53  45  74 SE3       30.34R
RICHLANDS      MOCLDY    57  47  69 E7        30.31S
ROCKY MOUNT    CLEAR     52  37  56 E5        30.33R
WASHINGTON     CLEAR     51  40  67 NE7       30.35R
WHITEVILLE     PTCLDY    60  50  68 NE3       30.29R

$$

AMZ130-135-150-152-154-156-158-170-250-252-270-ANZ085-086-088-633-658-670-152300-
MARINE OBSERVATIONS

STATION/POSITION TIME  TEMP    WIND        PRES    WAVE   SWELL
                       AIR SEA DIR/SP/G            HT/PER HT/PER
                 (UTC) (F)     (DEG/KT/KT) (MB)    (FT/S) (FT/S)
CHESAPEAKE LIGHT NOT AVBL
64 E VA BEACH    2150   46 57   20/ 16/ 19 1026.8    4/ 5   2/ 8
DUCK             2200   41 45   10/  9/ 11 1027.7
2 E DUCK         2200      47                N/A     4/ 6   2/11
OREGON INLET     2154   43 49  360/  9/ 11 1028.0
13E OREGON INLT  NOT AVBL
HATTERAS CG      2200   46 56  360/ 15/ 19 1027.2
DIAMOND BUOY     2150   52 74   10/ 17/ 23 1026.4    4/ 6   2/11
CAPE LOOKOUT     2200   49      20/ 12/ 14 1026.7
BEAUFORT LAB     2200   49 50   50/  6/ 11 1026.2
30 SE NEW RVR IN 2208   52 65   50/ 17/ 23 1026.5
30 SE NEW RVR IN 2213      65                N/A     4/ 4   2/11
27 SE WRIGHTSVLE 2208   58 70   70/ 16/ 21 1025.9
5 SE WRIGHTSVLE  2208   54      80/ 10/ 16 1026.3
225 S CAPE HAT   2150   69 72   30/  8/ 10 1024.6    4/11   3/11
41 SE CHARLESTON 2150   68 71  240/  8/  8 1024.2    4/11   3/11

$$




USA.gov is the U.S. government's official web portal to all federal, state and local government web resources and services.